Home   Weather   Bamako   Past weeks

Flag for Mali Past Weather in Bamako, Mali — Yesterday and Last 2 Weeks

Now
73 °F

Clear.


Feels Like: 77 °F
Forecast: 64 / 96 °F
Wind: 13 mph from Northeast

Location: Bamako / Senou

Current Time: Dec 9, 2016 at 6:11:09 am

Latest Report: Dec 9, 2016 at 5:30 am


Visibility: 10 mi

Pressure: 29.98 "Hg

Humidity: 41%

Dew Point: 48 °F

Location of BamakoLocation

Past Weather in Bamako — Graph

°F

Bamako Temperature Yesterday

Maximum temperature yesterday: 97 °F (at 2:00 pm)
Minimum temperature yesterday: 68 °F (at 2:00 am)
Average temperature yesterday: 81 °F

High & Low Weather Summary for the Past Weeks

 TemperatureHumidityPressure
High100 °F (Nov 26, 1:30 pm)83% (Nov 24, 5:00 am)30.01 "Hg (Nov 24, 5:00 am)
Low61 °F (Dec 6, 6:00 am)10% (Dec 5, 11:30 am)29.77 "Hg (Nov 26, 3:30 pm)
Average82 °F37%29.93 "Hg
* Reported Nov 24 5:00 am — Dec 9 5:00 am, Bamako, Weather by CustomWeather, © 2016

Note: Actual official high and low records may vary slightly from our data, if they occured in-between our weather recording intervals... More about our weather records

Advertising

Bamako Weather History for the Previous 24 Hours

Scroll right to see more
 ConditionsComfort  
Time TempWeatherWind HumidityBarometerVisibility
5:00 am
Fri, Dec 9
75 °FClear.13 mph39%29.98 "Hg10 mi
4:30 am75 °FClear.13 mph39%29.98 "Hg10 mi
4:00 am73 °FClear.9 mph41%29.98 "Hg10 mi
3:30 am73 °FClear.7 mph41%29.95 "Hg10 mi
3:00 am72 °FClear.9 mph47%29.95 "Hg10 mi
2:30 am73 °FClear.10 mph44%29.98 "Hg10 mi
2:00 am73 °FClear.9 mph41%29.98 "Hg10 mi
1:30 am77 °FClear.9 mph34%29.95 "Hg10 mi
1:00 am75 °FClear.7 mph39%29.98 "Hg10 mi
12:00 am75 °FClear.9 mph39%29.98 "Hg10 mi
11:30 pm
Thu, Dec 8
77 °FClear.9 mph36%29.98 "Hg10 mi
11:00 pm77 °FClear.9 mph36%29.98 "Hg10 mi
10:30 pm75 °FClear.9 mph39%29.98 "Hg10 mi
10:00 pm79 °FClear.7 mph34%29.98 "Hg10 mi
9:30 pm79 °FClear.7 mph32%29.98 "Hg10 mi
9:00 pm77 °FClear.6 mph36%29.98 "Hg10 mi
8:30 pm81 °FClear.9 mph30%29.98 "Hg10 mi
8:00 pm81 °FClear.8 mph28%29.95 "Hg10 mi
7:30 pm82 °FClear.7 mph26%29.95 "Hg10 mi
7:00 pm82 °FClear.6 mph30%29.92 "Hg10 mi
6:30 pm84 °FClear.7 mph25%29.92 "Hg10 mi
6:00 pm90 °FSunny.5 mph20%29.92 "Hg10 mi
5:30 pm93 °FSunny.8 mph16%29.92 "Hg10 mi
5:00 pm95 °FSunny.7 mph14%29.89 "Hg10 mi
4:30 pm95 °FSunny.9 mph14%29.89 "Hg10 mi
4:00 pm95 °FPassing clouds.9 mph15%29.89 "HgN/A
3:30 pm97 °FPassing clouds.8 mph13%29.89 "HgN/A
3:00 pm95 °FPassing clouds.9 mph14%29.89 "HgN/A
2:30 pm95 °FPassing clouds.13 mph14%29.92 "HgN/A
2:00 pm97 °FPassing clouds.10 mph13%29.92 "HgN/A
1:30 pm95 °FPassing clouds.12 mph14%29.92 "HgN/A
1:00 pm95 °FPassing clouds.14 mph14%29.95 "HgN/A
12:30 pm93 °FPassing clouds.14 mph16%29.95 "HgN/A
12:00 pm93 °FPassing clouds.13 mph19%29.98 "HgN/A
11:30 am91 °FSunny.15 mph18%29.98 "Hg10 mi
11:00 am88 °FSunny.13 mph24%30.01 "Hg10 mi
10:30 am86 °FSunny.15 mph25%30.01 "Hg10 mi
10:00 am86 °FSunny.16 mph24%30.01 "Hg10 mi
9:30 am82 °FPassing clouds.16 mph26%30.01 "HgN/A
9:00 am82 °FClear.10 mph28%30.01 "Hg5 mi
8:30 am81 °FClear.8 mph32%30.01 "Hg5 mi
8:00 am75 °FClear.6 mph41%29.98 "Hg5 mi
7:30 am70 °FClear.2 mph53%29.98 "Hg5 mi
7:00 am70 °FClear.5 mph53%29.95 "Hg5 mi
6:30 am70 °FClear.5 mph57%29.95 "Hg5 mi
6:00 am72 °FClear.7 mph47%29.95 "Hg5 mi
Weather by CustomWeather, © 2016

See weather overviewHow to use our weather pages